Location: Newark
(43.6500°N, 79.3800°W)
Time: 23:36:11
(UTC+00:00)

ISS - Visible Passes

Search period start: 19 July 2019 00:00
Search period end: 29 July 2019 00:00
Orbit: 409 x 418 km, 51.6° (Epoch: 20 July)

Date Brightness Start Highest point End Pass type
(mag) Time Alt. Az. Time Alt. Az. Time Alt. Az.
19 Jul -3.4 01:38:51 10° SSW 01:42:02 43° SE 01:45:14 10° ENE visible
19 Jul -2.0 03:15:41 10° W 03:18:47 34° NNW 03:21:53 10° NE visible
19 Jul -1.0 04:53:34 10° NW 04:56:09 20° N 04:58:42 10° NE visible
19 Jul -1.9 06:30:30 10° NW 06:33:31 31° NNE 06:36:33 10° E visible
19 Jul -3.7 08:07:05 10° WNW 08:10:20 51° SW 08:13:33 10° SE visible
20 Jul -2.8 02:26:07 10° WSW 02:29:23 49° NNW 02:32:39 10° NE visible
20 Jul -1.1 04:03:59 10° WNW 04:06:37 21° N 04:09:15 10° NE visible
20 Jul -1.5 05:41:14 10° NW 05:44:04 25° NNE 05:46:02 15° ENE visible
20 Jul -1.5 07:17:45 10° WNW 07:18:34 16° WNW 07:18:34 16° WNW visible
21 Jul -3.6 01:36:42 10° WSW 01:40:02 76° NNW 01:43:23 10° NE visible
21 Jul -1.3 03:14:20 10° WNW 03:17:07 24° NNW 03:19:53 10° NE visible
21 Jul -1.2 04:51:53 10° NW 04:54:34 22° N 04:56:14 15° NE visible
21 Jul -1.1 06:28:27 10° NW 06:28:59 14° NW 06:28:59 14° NW visible
22 Jul -1.6 02:24:39 10° W 02:27:37 28° NNW 02:30:35 10° NE visible
22 Jul -1.1 04:02:28 10° NW 04:05:02 20° N 04:07:37 10° NE visible
22 Jul -1.4 05:39:11 10° NW 05:40:31 20° NW 05:40:31 20° NW visible
23 Jul -2.1 01:35:01 10° W 01:38:09 37° NNW 01:41:19 10° NE visible
23 Jul -1.1 03:12:55 10° NW 03:15:28 20° N 03:18:04 10° NE visible
23 Jul -1.7 04:49:54 10° NW 04:52:21 28° N 04:52:21 28° N visible
24 Jul -1.2 02:23:15 10° WNW 02:25:56 22° N 02:28:36 10° NE visible
24 Jul -1.6 04:00:35 10° NW 04:03:23 24° NNE 04:04:18 21° NE visible
24 Jul -0.7 05:37:05 10° WNW 05:37:06 10° WNW 05:37:06 10° WNW visible
25 Jul -1.4 01:33:33 10° WNW 01:36:22 25° NNW 01:39:12 10° NE visible
25 Jul -1.3 03:11:10 10° NW 03:13:49 21° N 03:16:21 11° ENE visible
25 Jul -1.4 04:47:46 10° NW 04:49:09 22° NW 04:49:09 22° NW visible
26 Jul -1.2 02:21:39 10° NW 02:24:15 20° N 02:26:49 10° NE visible
26 Jul -2.2 03:58:27 10° NW 04:01:14 35° N 04:01:14 35° N visible
27 Jul -1.3 01:32:02 10° NW 01:34:38 20° N 01:37:15 10° NE visible
27 Jul -1.9 03:09:07 10° NW 03:12:04 28° NNE 03:13:21 21° NE visible
27 Jul -0.9 04:45:39 10° WNW 04:46:09 14° WNW 04:46:09 14° WNW visible
28 Jul -1.6 02:19:44 10° NW 02:22:30 23° N 02:25:15 10° ENE visible
28 Jul -2.2 03:56:16 10° NW 03:58:18 34° NW 03:58:18 34° NW visible
